User: anonymous
Location: NJAA Observatory
(40.6819°N, 74.8979°W)
Time: 18:07:59
(UTC-04:00)
Language:

Iridium 56 - Orbit

View from above orbital plane
View from above orbital plane
View from above satellite
View from above satellite

Ground track
Ground track

The orbit data is extracted from the following two-line orbital elements,

1 25170U 98010B   14113.46344317  .00000352  00000-0  11853-3 0  6892
2 25170 086.3939 111.4658 0002258 102.1957 051.2282 14.34218824846828
Epoch (UTC): 23 April 2014 11:07:21
Eccentricity: 0.0002258
inclination: 86.3939°
perigee height: 776 km
apogee height: 779 km
right ascension of ascending node: 111.4658°
argument of perigee: 102.1957°
revolutions per day: 14.34218824
mean anomaly at epoch: 51.2282°
orbit number at epoch: 84682

The dashed part of the orbit path shows where the satellite is in the earth's shadow,  

DLR